Regional Weather Roundup
Issued by NWS

Home | Current Version | Previous Version | Graphics & Text | Print | Product List | Glossary On
Versions: 1 2 3 4 5 6 7 8 9 10 11 12 13 14 15 16 17 18 19 20 21 22 23 24 25 26 27 28 29 30 31 32 33 34 35 36 37 38 39 40 41 42 43 44 45 46 47 48 49 50
000
ASUS43 KMKX 190800
RWRWI

WISCONSIN REGIONAL WEATHER ROUNDUP
NATIONAL WEATHER SERVICE MILWAUKEE/SULLIVAN WI
300 AM CDT SUN APR 19 2015

NOTE: "FAIR" INDICATES FEW OR NO CLOUDS BELOW 12,000 FEET WITH NO
SIGNIFICANT WEATHER AND/OR OBSTRUCTIONS TO VISIBILITY.

WIZ001-002-006>008-014>016-023>028-190900-
NORTHWEST WISCONSIN

CITY           SKY/WX    TMP DP  RH WIND       PRES   REMARKS
SUPERIOR ARPT  LGT RAIN  37  34  92 E9G17     29.96F WCI  30
ASHLAND        LGT RAIN  39  36  89 CALM      29.97S
HAYWARD        LGT RAIN  46  30  53 SE5       29.93F
SIREN          DRIZZLE   44  37  76 SE12G18   29.86F
CUMBERLAND     DRIZZLE   43  32  65 E10       29.88F
RICE LAKE      DRIZZLE   45  35  67 E13       29.92F
CHETEK         LGT RAIN  45  37  73 E8        29.92F
LADYSMITH      CLOUDY    47  30  51 CALM      29.98F
EAU CLAIRE     NOT AVBL
MENOMONIE      LGT RAIN  47  36  66 E14       29.87F
NEW RICHMOND   CLOUDY    46  36  68 SE12G18   29.84F
OSCEOLA        LGT RAIN  46  38  74 E14       29.85F
$$

WIZ003>005-009-010-017-018-190900-
NORTH CENTRAL WISCONSIN

CITY           SKY/WX    TMP DP  RH WIND       PRES   REMARKS
MANITOWISH WTR PTCLDY    45  26  46 SE8       29.95F
ARBOR VITAE    MIX PCPN  45  26  46 SE13G23   29.96F VSB 3/4
WOODRUFF       MIX PCPN  45  26  46 SE13G23   29.96F VSB 3/4
RHINELANDER    FAIR      43  26  51 E10       29.98F
EAGLE RIVER    PTCLDY    41  25  53 SE12      29.99F
LAND O LAKES   PTCLDY    42  26  53 SE10G20   30.00F
PHILLIPS       CLOUDY    48  20  33 SE7       29.93F
TOMAHAWK       MOCLDY    47  24  40 CALM      29.97F
MEDFORD        CLOUDY    46  25  43 E8        29.95R
MERRILL        MOCLDY    46  26  44 SE6       29.96F
$$

WIZ029-030-035-036-043>047-190900-
CENTRAL WISCONSIN

CITY           SKY/WX    TMP DP  RH WIND       PRES   REMARKS
WAUSAU         MOCLDY    46  24  42 E13G20    29.94F
MOSINEE        MOCLDY    45  23  42 E12       29.96F
MARSHFIELD     CLOUDY    48  27  44 S7        29.95S
STEVENS POINT  MOCLDY    45  24  42 E14       29.96F
WAUPACA        MOCLDY    48  26  42 NE6       29.98F
WAUTOMA        NOT AVBL
WISC RAPIDS    MOCLDY    48  24  39 E8        29.94F
CAMP DOUGLAS   CLOUDY    46  37  69 NE5       29.91F
$$

WIZ011>013-019>022-031-037>040-048>050-190900-
NORTHEAST WISCONSIN

CITY           SKY/WX    TMP DP  RH WIND       PRES   REMARKS
ANTIGO         MOCLDY    41  28  61 E13G18    29.99F
SHAWANO        PTCLDY    45  32  61 E10       30.01F
OCONTO         PTCLDY    41  31  68 CALM      30.03F
STURGEON BAY   PTCLDY    45  25  45 E12       30.05F
GREEN BAY      PTCLDY    48  22  35 E10       30.01F
MANITOWOC      NOT AVBL
APPLETON       MOCLDY    46  19  34 E13G18    29.99F
CLINTONVILLE   PTCLDY    43  30  61 NE5       30.01F
OSHKOSH        MOCLDY    50  25  37 SE13      29.96F
$$

WIZ032>034-041-042-053>061-190900-
SOUTHWEST WISCONSIN

CITY           SKY/WX    TMP DP  RH WIND       PRES   REMARKS
LA CROSSE      CLOUDY    55  31  39 E7        29.86F
SPARTA         CLOUDY    44  40  84 E3        29.92F
VIROQUA        CLOUDY    50  31  49 E9        29.88F
BOSCOBEL       MOCLDY    53  32  44 NE6       29.87F
PRAIRIE DU CHI CLOUDY    56  31  39 E6        29.86F
PLATTEVILLE    CLOUDY    53  34  49 E15       29.87F
$$

WIZ056-057-062-063-064-067-068-190900-
SOUTH CENTRAL WISCONSIN

CITY           SKY/WX    TMP DP  RH WIND       PRES   REMARKS
REEDSBURG      CLOUDY    50  30  45 E5        29.91F
BARABOO/DELLS  CLOUDY    49  28  44 NE7       29.92F
LONE ROCK      NOT AVBL
MINERAL POINT  MOCLDY    54  32  43 E13       29.88F
MADISON        CLOUDY    50  31  48 E9        29.91F
MIDDLETON      CLOUDY    51  30  45 E5        29.92F
WATERTOWN      CLOUDY    50  31  47 E12       29.93F
MONROE         MOCLDY    50  34  53 E6        29.90F
JANESVILLE     CLOUDY    52  32  46 E7        29.91F
$$

WIZ051-052-058>065-066-070>072-190900-
SOUTHEAST WISCONSIN

CITY           SKY/WX    TMP DP  RH WIND       PRES   REMARKS
MILWAUKEE      CLOUDY    47  29  49 E20       29.97F
WAUKESHA       CLOUDY    45  30  57 E7        29.98F
MILWAUKEE/TIMM MOCLDY    46  27  46 E7        29.99F
RACINE         CLOUDY    46  32  58 E12       29.98F
BURLINGTON     CLOUDY    47  32  56 E8        29.95F
KENOSHA        CLOUDY    47  33  58 E9        29.96F
FOND DU LAC    MOCLDY    50  23  34 SE16      29.95F
SHEBOYGAN      MOCLDY    46  27  47 SE9       30.01F
WEST BEND      MOCLDY    46  27  46 E8G16     29.99F
JUNEAU         CLOUDY    50  28  42 E15G24    29.95F
$$

LSZ147-162-190900-
LAKE SUPERIOR

STATION/POSITION TIME  TEMP    WIND        PRES    WAVE
                       AIR SEA DIR/SP/G            HT/PER
                 (UTC) (F)     (DEG/KT/KT) (MB)    (FT/S)
DEVILS ISLAND    0700   38      70/ 13/ 14 1016.1F
PORT WING        0700   38      40/  9/ 12 1016.3
SAXON HARBOR     0700   48     330/  3/  7 1014.2F
$$

LMZ867-665-643>646-190900-
LAKE MICHIGAN

STATION/POSITION TIME  TEMP    WIND        PRES    WAVE
                       AIR SEA DIR/SP/G            HT/PER
                 (UTC) (F)     (DEG/KT/KT) (MB)    (FT/S)
CHAMBERS ISLAND  0700   44      90/  5/  7 1018.6F
NORTHPORT PIER   0700   40     100/ 10/ 15 1018.6F
SISTER BAY       0702   43     130/  9/ 13   N/A
KEWAUNEE LAKESHO 0700   43      60/  5/  9 1016.7
SHEBOYGAN LAKESH 0700   44     120/  5/  6 1017.4F
PORT WASHINGTON  0740   45      70/  5/  7 1016.6F
MILWAUKEE LAKESH 0700   44      90/ 10/ 13   N/A
KENOSHA   LAKESH 0700   45     100/  4/  6 1015.2F
$$

TC  - TEMPERATURE IN CELSIUS
VSB - VISIBILITY IN STATUTE MILES
WCI - WIND CHILL INDEX
HX  - HEAT INDEX



USA.gov is the U.S. government's official web portal to all federal, state and local government web resources and services.